Flag for Portugal Weather past 2 weeks in Faro, Portugal

Now
54 °F

Clear.


Feels Like: 54 °F
Forecast: 54 / 70 °F
Wind: 2 mph from North

Location: Faro / Aeroporto

Current Time: Mar 4, 2015 at 7:24:01 AM

Latest Report: Mar 4, 2015 at 6:30 AM


Visibility: 10 mi

Pressure: 30.30 "Hg

Humidity: 94%

Dew point: 52 °F

Location of FaroLocation

Historic Weather in Faro — Graph

°F

Faro temperature yesterday

Maximum temperature yesterday: 64 °F (at 10:30 AM)
Minimum temperature yesterday: 52 °F (at 6:30 AM)
Average temperature yesterday: 58 °F

Past Weeks' High & Low Weather Summary

 TemperatureHumidityPressure
High70 °F (Feb 26, 2:30 PM)100% (Feb 21, 6:30 AM)30.54 "Hg (Feb 21, 6:30 AM)
Low45 °F (Feb 24, 7:30 AM)32% (Feb 17, 2:00 PM)29.89 "Hg (Feb 21, 2:30 PM)
Average57 °F71%30.27 "Hg
* Reported Feb 17 6:00 AM — Mar 4 6:00 AM, Faro, Weather by CustomWeather, © 2015

Note: Actual official high and low records may vary slightly from our data, if they occured in-between our weather recording intervals... More about our weather records

Advertising

Faro weather history for previous 24 hours

 ConditionsComfort  
Time TempWeatherWind HumidityBarometerVisibility
6:00 AM
Wed, Mar 4
54 °FClear.1 mph94%30.30 "Hg10 mi
5:30 AM54 °FClear.1 mph82%30.30 "Hg10 mi
5:00 AM54 °FClear.No wind82%30.30 "Hg10 mi
4:30 AM55 °FPassing clouds.5 mph82%30.27 "HgN/A
4:00 AM55 °FClear.1 mph77%30.27 "Hg10 mi
3:30 AM54 °FPassing clouds.3 mph88%30.30 "HgN/A
3:00 AM55 °FPassing clouds.3 mph82%30.30 "HgN/A
2:30 AM55 °FClear.5 mph82%30.30 "Hg10 mi
2:00 AM55 °FClear.No wind82%30.30 "Hg10 mi
1:30 AM54 °FClear.1 mph88%30.30 "Hg10 mi
1:00 AM55 °FPassing clouds.3 mph88%30.30 "HgN/A
12:30 AM55 °FPassing clouds.3 mph88%30.30 "HgN/A
12:00 AM54 °FClear.3 mph94%30.30 "Hg10 mi
11:30 PM
Tue, Mar 3
54 °FClear.3 mph88%30.33 "Hg10 mi
11:00 PM55 °FClear.5 mph82%30.30 "Hg10 mi
10:30 PM55 °FClear.6 mph88%30.30 "Hg10 mi
10:00 PM55 °FClear.5 mph88%30.30 "Hg10 mi
9:30 PM55 °FClear.3 mph88%30.30 "Hg10 mi
9:00 PM55 °FClear.No wind94%30.30 "Hg10 mi
8:30 PM57 °FPassing clouds.3 mph88%30.30 "HgN/A
8:00 PM57 °FClear.3 mph88%30.30 "Hg10 mi
7:30 PM57 °FClear.6 mph94%30.27 "Hg10 mi
7:00 PM57 °FClear.5 mph94%30.27 "Hg10 mi
6:30 PM57 °FClear.7 mph94%30.27 "Hg10 mi
6:00 PM59 °FSunny.8 mph88%30.24 "Hg10 mi
5:30 PM59 °FPassing clouds.7 mph88%30.24 "HgN/A
5:00 PM59 °FPassing clouds.7 mph88%30.24 "HgN/A
4:30 PM61 °FPassing clouds.7 mph83%30.27 "HgN/A
4:00 PM61 °FPassing clouds.8 mph88%30.27 "HgN/A
3:30 PM61 °FPassing clouds.9 mph88%30.27 "HgN/A
3:00 PM61 °FPassing clouds.12 mph88%30.27 "HgN/A
2:30 PM61 °FPassing clouds.9 mph88%30.27 "HgN/A
2:00 PM61 °FSunny.9 mph83%30.27 "Hg10 mi
1:30 PM63 °FSunny.10 mph83%30.27 "Hg10 mi
1:00 PM63 °FSunny.10 mph77%30.27 "Hg10 mi
12:30 PM63 °FSunny.8 mph77%30.30 "Hg10 mi
12:00 PM61 °FSunny.9 mph83%30.30 "Hg10 mi
11:30 AM63 °FPassing clouds.9 mph83%30.30 "HgN/A
11:00 AM63 °FPassing clouds.5 mph77%30.30 "HgN/A
10:30 AM64 °FPassing clouds.3 mph68%30.30 "HgN/A
10:00 AM63 °FSunny.2 mph73%30.30 "Hg10 mi
9:30 AM61 °FSunny.3 mph77%30.30 "Hg10 mi
9:00 AM59 °FSunny.2 mph77%30.27 "Hg10 mi
8:30 AM55 °FSunny.3 mph88%30.27 "Hg10 mi
8:00 AM54 °FSunny.3 mph88%30.27 "Hg10 mi
7:30 AM54 °FSunny.5 mph88%30.24 "Hg10 mi
7:00 AM54 °FSunny.6 mph88%30.24 "Hg10 mi
Weather by CustomWeather, © 2015

See weather overviewHow to use our weather pages